Wind_Speed
13 11 8 12 11 11 11 11 14 18 20 22 24 25 24 23 21 21 23 27 29 25 22 24 24 27 30 32 34 31 29 29 29 28 30 32 30 27 26 25 27 28 29 30
14 13 11 14 13 12 14 15 19 20 22 25 28 29 29 28 24 25 27 30 32 27 25 25 26 28 29 31 31 28 27 26 25 24 25 24 24 28 31 28 25 27 30 33
14 14 16 18 17 16 19 21 24 22 27 31 36 35 33 32 30 31 30 28 31 29 29 30 30 31 33 33 33 30 27 27 27 27 28 26 25 25 28 31 31 30 30 30
19 20 22 21 22 21 22 24 28 30 33 36 37 35 32 32 32 30 29 33 32 29 30 31 31 34 34 36 33 32 32 31 31 33 33 32 31 30 28 27 28 31 32 33
23 24 23 24 24 25 27 31 33 34 34 35 34 34 33 32 33 36 35 34 33 33 33 33 33 35 36 35 33 31 32 32 33 34 33 31 31 31 30 30 32 32 32 35
23 23 24 26 28 29 31 32 33 34 35 34 31 30 36 36 35 38 38 37 37 37 38 38 39 39 38 36 34 33 33 32 31 33 33 33 32 30 31 32 31 32 35 37
24 24 27 29 29 31 31 33 36 37 38 38 40 40 40 42 44 43 42 42 43 43 44 43 40 39 39 39 40 40 40 39 37 36 37 35 34 34 35 37 38 38 37 37
28 29 30 31 32 33 32 35 34 37 40 41 42 43 44 44 47 49 47 47 47 45 44 42 39 38 38 38 39 40 41 41 41 42 41 41 39 38 38 38 40 40 42 44
30 31 33 35 37 37 39 39 40 38 38 40 45 48 49 50 54 55 52 51 51 47 42 41 39 37 37 38 37 38 39 41 43 44 44 43 43 42 43 44 46 44 45 46
35 36 39 39 39 40 41 43 43 40 41 43 47 49 51 52 52 54 56 57 56 55 50 44 41 41 40 42 40 40 43 45 46 47 47 47 46 47 47 48 49 50 50 50
43 41 42 42 43 45 46 47 46 46 47 45 47 48 49 53 55 56 56 55 54 51 46 45 44 43 43 44 44 46 47 48 50 51 50 51 52 52 53 52 52 53 52 53
46 47 47 47 49 50 51 51 51 51 49 46 47 52 51 53 54 51 49 48 47 48 49 49 48 46 47 47 47 50 52 53 53 54 53 53 53 54 55 55 55 55 56 55
49 50 49 50 52 53 54 55 53 49 50 51 53 54 54 51 47 45 42 44 47 48 50 50 49 49 49 47 48 49 51 54 54 54 54 55 54 54 55 54 55 56 56 57
49 51 52 54 54 54 54 49 49 53 55 55 56 53 55 52 48 45 42 42 44 46 47 48 48 48 47 47 47 50 52 53 56 56 57 57 57 58 58 58 57 57 57 57
51 52 53 54 54 53 54 52 52 54 53 52 51 51 50 47 43 43 46 47 48 49 49 50 51 51 51 52 52 52 52 54 58 59 59 59 59 59 59 59 58 57 57 57
53 53 52 54 53 53 59 56 56 55 55 55 53 48 47 44 43 44 46 47 49 51 52 52 52 53 54 54 54 55 58 59 61 65 67 67 65 65 64 63 61 60 60 59
53 50 50 54 55 56 61 57 58 60 61 57 50 47 47 47 46 46 49 51 52 54 55 56 57 57 58 61 64 67 69 70 70 73 70 71 71 71 69 67 65 63 59 56
50 51 53 55 59 55 59 60 61 60 58 53 50 49 49 48 50 52 53 55 58 59 59 61 63 65 68 72 74 75 76 72 67 65 65 64 65 65 63 62 60 58 54 48
53 55 56 55 57 58 60 58 55 52 52 51 50 50 51 52 53 58 59 59 62 63 65 69 72 74 78 81 82 76 75 73 68 66 68 65 64 62 59 58 57 55 51 45
55 55 58 61 59 57 57 55 53 50 48 49 49 50 52 55 57 60 61 61 63 67 70 76 79 82 83 81 79 77 75 73 71 70 71 68 65 65 61 55 52 50 45 41
63 59 57 59 58 56 51 49 50 47 47 49 50 53 56 58 60 61 63 65 69 73 78 79 77 74 77 78 78 77 78 77 75 79 74 68 61 63 63 59 52 47 43 39
61 62 60 58 56 51 49 48 48 47 48 51 53 56 57 59 62 67 71 75 76 79 75 77 76 74 75 75 75 76 78 81 79 66 55 54 46 43 44 48 46 44 40 37
57 56 56 54 52 49 48 50 49 50 54 57 59 62 63 65 69 74 77 79 77 74 75 75 73 70 70 77 79 80 79 71 69 69 63 60 54 43 38 41 41 37 34 35
54 53 50 49 49 50 51 53 54 56 58 60 61 64 68 71 76 78 77 75 74 75 74 72 71 75 77 85 79 68 60 62 55 42 40 33 37 42 35 34 34 30 30 30
51 48 47 48 50 52 57 56 57 60 61 64 67 69 74 76 74 70 71 72 75 75 73 73 76 80 84 79 61 55 45 46 23 16 23 8 13 27 30 26 26 24 24 23
48 49 49 52 54 56 57 60 63 63 66 68 72 75 77 73 72 71 72 74 72 71 72 75 81 78 64 45 47 41 38 29 17 26 25 20 16 24 24 21 20 20 20 19
Wind_Direction
214 230 274 294 291 292 297 310 322 325 329 333 337 334 335 335 336 325 316 315 326 324 321 315 305 298 294 293 295 298 296 291 289 290 289 288 291 290 293 286 280 280 278 275
216 236 252 281 289 304 293 315 319 329 331 331 329 328 326 326 325 321 316 315 318 315 314 313 309 305 304 306 308 304 300 295 291 290 290 288 288 288 289 288 283 279 274 276
224 246 267 284 291 298 295 303 312 316 316 318 320 320 319 318 321 320 318 319 323 318 317 316 314 311 311 311 309 302 303 303 301 302 301 299 293 290 284 283 286 284 279 273
247 265 274 287 295 295 295 298 304 310 316 315 315 316 317 317 320 317 310 310 316 314 313 313 312 312 314 311 308 309 310 307 303 299 296 293 292 288 285 283 279 280 281 279
258 272 282 287 283 290 291 301 306 308 310 309 312 314 316 319 319 316 315 313 312 309 308 310 313 313 309 306 306 303 296 294 293 294 299 298 295 289 286 282 283 283 281 283
260 270 282 284 284 290 299 304 308 306 306 310 318 318 316 317 319 318 313 313 312 312 312 314 316 312 307 303 302 295 289 288 292 297 302 300 295 292 291 290 287 283 283 283
264 273 280 285 292 300 303 305 307 307 309 308 311 315 315 313 315 318 317 313 312 313 314 315 313 307 305 305 305 309 305 303 303 301 298 291 289 290 291 291 290 287 284 279
268 275 282 289 296 303 306 310 308 306 307 311 313 312 311 309 310 312 312 311 310 309 310 308 305 301 299 297 296 296 297 298 297 296 293 291 290 286 286 289 288 290 287 285
271 278 286 290 295 299 302 305 307 306 306 306 307 307 306 306 307 308 307 307 307 306 305 302 299 293 289 290 292 294 294 294 293 291 290 287 287 287 285 287 289 290 288 285
276 281 287 291 296 299 299 300 302 302 303 300 301 301 302 304 304 305 305 307 307 308 309 308 304 302 300 298 297 297 296 295 293 293 292 291 290 290 288 288 289 290 290 289
276 280 288 290 291 295 297 298 300 301 302 302 301 300 303 305 305 304 304 304 306 306 305 301 299 299 296 297 300 299 296 295 294 293 292 290 291 291 289 288 288 288 289 289
282 285 290 292 294 297 298 300 303 305 304 302 300 300 303 302 301 299 298 296 295 295 296 295 294 291 290 293 295 294 295 295 295 293 291 290 289 288 288 288 287 286 286 287
284 285 289 293 297 299 301 302 304 302 300 303 304 303 302 300 298 296 292 288 287 287 287 289 291 292 293 294 292 292 292 292 291 291 290 290 288 287 286 287 287 286 286 286
283 286 290 292 295 299 299 299 301 303 305 305 303 303 302 301 298 294 289 283 282 284 286 288 288 289 291 290 291 292 292 290 289 289 289 288 288 288 288 288 288 288 289 290
283 288 291 293 296 297 295 299 302 301 300 300 301 300 299 297 298 295 293 294 294 295 295 295 296 297 296 295 294 292 291 290 290 290 288 288 287 287 287 288 289 290 291 292
283 286 289 289 292 295 297 300 299 298 298 299 299 297 294 289 286 286 288 289 290 292 293 295 295 295 295 293 292 290 289 289 289 289 288 288 287 287 287 287 288 289 290 291
283 286 289 290 293 294 293 298 297 298 298 300 299 296 295 295 295 295 294 294 295 295 296 297 297 296 295 295 295 294 293 290 289 289 289 288 287 286 285 285 286 287 288 291
283 284 285 286 290 293 293 296 298 299 299 300 298 296 296 297 298 298 299 301 300 300 299 297 297 297 297 297 296 297 296 295 294 291 289 287 287 286 285 284 285 287 287 289
277 280 282 285 287 289 291 293 296 295 295 296 296 297 299 301 302 301 301 299 298 299 301 300 299 298 299 299 299 299 298 296 293 293 293 290 287 285 283 283 283 282 284 286
276 280 284 286 287 289 291 292 293 292 291 290 292 294 295 294 295 296 297 298 297 298 299 299 299 299 299 299 300 298 297 296 294 292 290 286 283 280 278 278 281 281 279 281
283 284 284 287 289 291 290 287 286 287 288 289 289 289 293 297 299 299 299 299 299 300 301 301 300 300 300 300 300 298 297 297 297 293 290 287 282 275 272 269 270 276 276 276
286 287 288 289 290 289 287 286 285 285 287 288 291 295 297 298 300 302 302 303 301 301 300 299 300 300 300 299 300 299 298 300 297 293 287 282 272 274 279 265 262 268 270 270
288 289 289 291 292 290 289 288 292 298 298 299 300 300 301 300 300 301 302 302 301 300 301 301 302 301 301 301 302 301 300 296 296 296 290 282 267 263 271 267 255 260 262 265
284 286 289 289 290 292 293 295 297 297 297 297 298 299 299 301 302 302 303 303 304 303 303 303 303 302 303 305 305 302 295 296 295 303 305 287 272 253 261 261 247 248 258 262
284 283 283 284 285 289 290 293 294 295 298 299 300 301 303 304 304 303 304 304 305 304 304 303 304 303 304 303 301 298 309 305 282 208 265 289 284 244 244 247 237 242 249 249
279 280 282 283 286 288 289 293 296 298 299 300 301 304 306 305 306 307 307 306 306 306 305 304 304 301 300 296 297 311 316 303 217 213 238 264 279 215 226 222 223 236 235 247
Height
11043 11044 11043 11042 11042 11043 11041 11040 11038 11036 11033 11031 11029 11028 11025 11022 11019 11017 11014 11010 11009 11008 11006 11003 11001 10999 10997 10995 10993 10990 10988 10985 10982 10980 10976 10974 10972 10972 10972 10970 10970 10970 10969 10969
11041 11042 11041 11040 11040 11040 11038 11036 11034 11032 11029 11027 11025 11024 11021 11018 11015 11013 11010 11008 11005 11001 11000 10998 10996 10993 10990 10988 10984 10981 10979 10977 10975 10972 10970 10969 10967 10964 10962 10962 10963 10963 10962 10962
11038 11039 11038 11038 11038 11038 11035 11034 11032 11030 11027 11024 11021 11019 11016 11012 11010 11007 11004 11002 10999 10996 10993 10990 10988 10985 10983 10981 10978 10974 10971 10968 10966 10964 10963 10962 10961 10960 10957 10954 10953 10952 10952 10953
11036 11036 11036 11035 11034 11033 11032 11030 11029 11026 11023 11020 11016 11013 11012 11008 11005 11003 11000 10998 10995 10991 10988 10985 10980 10977 10974 10971 10968 10966 10963 10961 10959 10957 10955 10954 10952 10950 10950 10948 10947 10945 10943 10942
11033 11033 11033 11033 11032 11030 11029 11027 11025 11021 11018 11014 11011 11007 11004 11002 11000 10996 10993 10991 10989 10986 10983 10979 10974 10970 10968 10965 10961 10960 10958 10956 10953 10950 10947 10945 10943 10941 10940 10938 10937 10936 10936 10934
11028 11029 11029 11029 11027 11026 11025 11022 11019 11015 11012 11008 11004 11001 10996 10995 10993 10990 10985 10982 10978 10976 10973 10969 10965 10961 10959 10956 10954 10952 10950 10948 10946 10942 10940 10937 10935 10933 10932 10930 10929 10928 10925 10925
11024 11025 11025 11025 11025 11024 11021 11016 11011 11007 11003 11000 10997 10994 10989 10985 10982 10979 10975 10972 10968 10965 10960 10958 10956 10952 10949 10945 10941 10937 10935 10934 10934 10933 10931 10930 10927 10925 10923 10921 10920 10919 10917 10916
11020 11021 11020 11020 11019 11016 11014 11011 11006 11002 10995 10992 10988 10985 10983 10977 10973 10971 10967 10964 10960 10957 10954 10952 10949 10945 10942 10940 10937 10933 10929 10927 10925 10924 10923 10920 10918 10916 10914 10913 10910 10909 10906 10903
11016 11015 11015 11013 11011 11010 11008 11006 11003 10999 10994 10988 10982 10976 10970 10969 10964 10959 10956 10953 10951 10948 10946 10944 10942 10940 10937 10934 10931 10927 10923 10920 10918 10916 10914 10912 10908 10907 10904 10902 10899 10898 10896 10893
11009 11009 11008 11006 11005 11003 11000 10997 10996 10993 10990 10984 10977 10969 10965 10961 10956 10950 10945 10942 10938 10936 10934 10932 10930 10927 10924 10921 10919 10918 10914 10912 10908 10905 10902 10900 10897 10895 10892 10890 10887 10885 10882 10879
11001 11002 11001 10999 10997 10995 10992 10989 10986 10985 10982 10977 10969 10962 10958 10952 10945 10940 10935 10930 10928 10925 10924 10922 10921 10920 10916 10912 10910 10907 10904 10902 10897 10893 10890 10886 10884 10881 10878 10876 10874 10871 10868 10865
10992 10992 10991 10989 10986 10984 10982 10978 10976 10973 10968 10966 10961 10954 10952 10945 10939 10934 10929 10926 10922 10918 10915 10913 10912 10911 10908 10905 10902 10897 10892 10888 10884 10879 10876 10873 10870 10867 10863 10861 10858 10856 10852 10849
10984 10982 10982 10979 10976 10974 10970 10968 10966 10962 10958 10955 10949 10943 10940 10938 10933 10929 10925 10921 10916 10912 10908 10904 10901 10898 10896 10895 10892 10887 10881 10876 10872 10867 10863 10859 10856 10852 10849 10847 10844 10841 10836 10832
10973 10972 10971 10969 10968 10965 10961 10960 10956 10951 10946 10942 10936 10932 10926 10924 10923 10919 10916 10911 10906 10902 10898 10895 10891 10888 10886 10882 10879 10874 10870 10864 10858 10854 10849 10845 10841 10836 10833 10831 10829 10825 10820 10814
10964 10962 10960 10956 10955 10952 10947 10949 10947 10943 10938 10933 10927 10921 10917 10914 10910 10904 10899 10895 10892 10889 10886 10883 10879 10876 10872 10867 10864 10860 10855 10849 10842 10837 10832 10828 10824 10821 10816 10812 10810 10807 10803 10798
10955 10953 10951 10944 10947 10944 10935 10938 10934 10930 10926 10923 10919 10913 10908 10904 10900 10895 10891 10887 10884 10879 10875 10871 10866 10861 10857 10853 10847 10842 10836 10832 10826 10818 10813 10808 10804 10802 10798 10795 10792 10789 10785 10782
10943 10943 10942 10935 10935 10934 10922 10927 10921 10917 10911 10910 10906 10898 10893 10889 10886 10884 10880 10875 10871 10866 10861 10856 10850 10845 10839 10834 10828 10823 10817 10810 10805 10798 10792 10787 10781 10778 10777 10774 10772 10771 10769 10766
10934 10933 10931 10929 10922 10922 10915 10912 10908 10902 10894 10893 10889 10885 10881 10879 10874 10869 10866 10862 10854 10849 10843 10838 10832 10827 10820 10812 10806 10801 10792 10785 10781 10776 10770 10766 10761 10757 10755 10754 10752 10750 10750 10750
10924 10923 10921 10918 10915 10914 10907 10902 10896 10890 10883 10879 10876 10872 10869 10865 10861 10854 10850 10845 10836 10831 10825 10818 10811 10805 10797 10787 10780 10774 10767 10761 10756 10753 10748 10745 10739 10735 10734 10734 10733 10732 10732 10734
10913 10912 10909 10905 10904 10902 10895 10888 10884 10880 10876 10870 10868 10863 10859 10853 10849 10842 10836 10831 10822 10816 10809 10800 10791 10783 10774 10763 10757 10749 10741 10737 10734 10729 10725 10721 10717 10714 10714 10714 10715 10715 10716 10718
10896 10898 10896 10892 10888 10886 10882 10877 10872 10871 10867 10861 10856 10851 10847 10839 10832 10826 10819 10814 10807 10798 10789 10780 10770 10762 10753 10742 10734 10725 10717 10712 10709 10704 10699 10694 10689 10689 10690 10693 10697 10698 10700 10702
10882 10880 10878 10876 10873 10873 10868 10864 10860 10859 10854 10849 10844 10838 10832 10824 10817 10809 10801 10793 10786 10777 10766 10757 10750 10742 10733 10722 10715 10706 10695 10688 10681 10675 10674 10672 10669 10669 10669 10672 10677 10682 10685 10687
10872 10865 10863 10860 10857 10854 10854 10848 10846 10843 10837 10831 10825 10818 10814 10808 10800 10792 10783 10774 10765 10757 10747 10738 10731 10723 10713 10703 10696 10687 10675 10666 10658 10653 10649 10648 10648 10651 10653 10655 10661 10667 10670 10673
10858 10855 10853 10848 10843 10841 10836 10833 10832 10826 10822 10816 10811 10806 10798 10791 10783 10774 10763 10753 10744 10734 10726 10718 10710 10700 10690 10678 10671 10662 10655 10648 10638 10633 10625 10620 10625 10634 10637 10641 10646 10653 10657 10660
10846 10843 10840 10837 10832 10830 10822 10821 10817 10810 10805 10799 10792 10787 10780 10773 10764 10756 10747 10737 10727 10716 10707 10698 10689 10680 10669 10660 10652 10645 10640 10628 10623 10614 10623 10610 10613 10618 10622 10630 10637 10642 10646 10650
10832 10830 10827 10823 10820 10816 10810 10804 10799 10795 10789 10782 10774 10766 10760 10752 10744 10737 10727 10717 10708 10699 10689 10679 10668 10656 10649 10644 10638 10631 10625 10619 10611 10607 10608 10604 10607 10609 10616 10622 10628 10633 10637 10641